Eviapetrol I — SY5401 — position and weather

sailwx.info

Track history (hours):
 
Tides and Currents Weather Stations Pressure Air Temp Water Temp Dewpoint Dewpoint Depression Visibility Wind Speed Wind Dir Waves Ship Positions

Eviapetrol I

Last reported at 2014-Jul-30 16:21 UTC. Time now 2014-Jul-30 19:22 UTC.
Position N 37°55' E 023°05'.

Length 75 m; draft 4.5 m.

Type: Tanker. MMSI: 240285000.

Date/timePositionNaut miles runAvg speedWind from/ knotsBaromVisibWave heightAir tempDewpointWater temp
2014-Jul-30 16:21N 37°55' E 023°05'0 0.0
2014-Jul-30 15:15N 37°55' E 023°05'0 0.0
2014-Jul-30 14:33N 37°55' E 023°05'0 0.0
2014-Jul-30 13:30N 37°55' E 023°05'0 0.0
2014-Jul-30 09:24N 37°55' E 023°05'0 0.0
2014-Jul-30 08:33N 37°55' E 023°05'0 0.0
2014-Jul-30 07:33N 37°55' E 023°05'6 5.0
2014-Jul-30 06:17N 37°51' E 023°12'9 9.4
2014-Jul-30 05:22N 37°43' E 023°17'7 8.4
2014-Jul-30 04:33N 37°40' E 023°24'9 9.0
2014-Jul-30 03:32N 37°35' E 023°34'9 9.4
2014-Jul-30 02:31N 37°26' E 023°37'2 2.0
2014-Jul-30 01:30N 37°25' E 023°39'10 9.0
2014-Jul-30 00:26N 37°15' E 023°41'11 9.7
2014-Jul-29 23:18N 37°04' E 023°43'17 9.6
2014-Jul-29 21:29N 36°47' E 023°48'10 9.5
2014-Jul-29 20:28N 36°38' E 023°51'65 9.3
2014-Jul-29 13:32N 35°34' E 024°03'1 0.1
2014-Jul-29 01:09N 35°34' E 024°04'2 3.3
2014-Jul-29 00:32N 35°35' E 024°03'9 9.1
2014-Jul-28 23:33N 35°44' E 024°01'9 8.6
2014-Jul-28 22:32N 35°53' E 023°60'8 8.0
2014-Jul-28 21:33N 36°01' E 023°59'11 8.4
2014-Jul-28 20:12N 36°12' E 023°59'6 8.7
2014-Jul-28 19:33N 36°18' E 023°58'9 8.9
2014-Jul-28 18:33N 36°27' E 023°56'9 8.6
2014-Jul-28 17:31N 36°35' E 023°54'8 8.4
2014-Jul-28 16:33N 36°43' E 023°52'9 8.5
2014-Jul-28 15:33N 36°52' E 023°50'9 8.7
2014-Jul-28 14:33N 37°00' E 023°48'9 8.8
2014-Jul-28 13:33N 37°09' E 023°47'10 9.0
2014-Jul-28 12:27N 37°19' E 023°46'8 8.8
2014-Jul-28 11:33N 37°27' E 023°45'9 9.1
2014-Jul-28 10:33N 37°36' E 023°43'9 9.5
2014-Jul-28 09:33N 37°45' E 023°39'9 9.3
2014-Jul-28 08:33N 37°54' E 023°35'8 8.3
2014-Jul-28 07:33N 38°01' E 023°32'1 0.2
2014-Jul-28 04:12N 38°02' E 023°32'3 0.4
2014-Jul-27 19:11N 38°02' E 023°36'0 0.6
2014-Jul-27 18:33N 38°02' E 023°35'28 8.5
2014-Jul-27 15:16N 37°55' E 023°01'  
2014-Jul-25 08:30N 37°55' E 023°01'10 7.5
2014-Jul-25 07:11N 37°56' E 023°14'6 9.5
2014-Jul-25 06:33N 37°57' E 023°22'12 1.1
2014-Jul-24 19:19N 38°02' E 023°36'0 0.0
2014-Jul-24 18:31N 38°02' E 023°36'0 0.0
2014-Jul-24 16:06N 38°02' E 023°36'0 0.1
2014-Jul-24 15:33N 38°02' E 023°36'3 3.2
2014-Jul-24 14:33N 38°01' E 023°32'0 0.0
2014-Jul-24 13:33N 38°01' E 023°32'3 2.9
2014-Jul-24 12:33N 37°59' E 023°33'10 9.7
2014-Jul-24 11:33N 37°51' E 023°40'1310.2
2014-Jul-24 10:15N 37°39' E 023°48'4110.3
2014-Jul-24 06:17N 37°08' E 024°21'810.1
2014-Jul-24 05:28N 37°02' E 024°28'910.1
2014-Jul-24 04:32N 36°54' E 024°35'1010.0
2014-Jul-24 03:33N 36°46' E 024°42'10 9.4
2014-Jul-24 02:32N 36°37' E 024°40'10 9.7
2014-Jul-24 01:33N 36°28' E 024°34'9 8.8
2014-Jul-24 00:33N 36°20' E 024°37'9 9.2
2014-Jul-23 23:33N 36°11' E 024°41'9 8.7
2014-Jul-23 22:33N 36°03' E 024°45'12 8.5
2014-Jul-23 21:11N 35°52' E 024°50'6 8.2
2014-Jul-23 20:31N 35°47' E 024°53'8 8.5
2014-Jul-23 19:32N 35°40' E 024°57'9 9.1
2014-Jul-23 18:33N 35°31' E 025°01'10 8.7
2014-Jul-23 17:26N 35°22' E 025°03'1 0.2
2014-Jul-23 12:15N 35°21' E 025°03'0 0.0
2014-Jul-23 06:16N 35°21' E 025°03'1 0.8
2014-Jul-23 05:32N 35°21' E 025°03'9 8.0
2014-Jul-23 04:26N 35°30' E 025°01'12 9.7
2014-Jul-23 03:14N 35°40' E 024°54'1710.3
2014-Jul-23 01:33N 35°55' E 024°44'1110.7
2014-Jul-23 00:33N 36°05' E 024°38'1010.2
2014-Jul-22 23:33N 36°14' E 024°32'1010.0
2014-Jul-22 22:33N 36°22' E 024°25'10 9.4
2014-Jul-22 21:26N 36°31' E 024°19'8 8.8
2014-Jul-22 20:30N 36°39' E 024°14'8 8.6
2014-Jul-22 19:32N 36°47' E 024°10'9 8.8
2014-Jul-22 18:30N 36°55' E 024°06'11 9.4
2014-Jul-22 17:17N 37°05' E 023°60'7 9.2
2014-Jul-22 16:33N 37°11' E 023°56'9 9.1
2014-Jul-22 15:33N 37°20' E 023°52'9 8.7
2014-Jul-22 14:33N 37°28' E 023°49'11 9.0
2014-Jul-22 13:18N 37°38' E 023°43'7 9.6
2014-Jul-22 12:33N 37°45' E 023°39'9 9.1
2014-Jul-22 11:33N 37°54' E 023°36'8 7.7
2014-Jul-22 10:33N 38°01' E 023°32'1 1.1
2014-Jul-22 09:31N 38°02' E 023°32'0 0.0
2014-Jul-22 08:31N 38°02' E 023°32'0 0.0
2014-Jul-22 07:31N 38°02' E 023°32'0 0.0
2014-Jul-22 06:28N 38°02' E 023°32'3 3.1
2014-Jul-22 05:33N 38°02' E 023°35'0 0.3
2014-Jul-22 04:31N 38°02' E 023°36'0 0.0
2014-Jul-22 03:31N 38°02' E 023°36'0 0.0
2014-Jul-22 02:25N 38°02' E 023°36'0 0.0
2014-Jul-22 01:19N 38°02' E 023°36'0 0.0
2014-Jul-22 00:19N 38°02' E 023°36'0 0.0
2014-Jul-21 20:10N 38°02' E 023°36'0 0.0
2014-Jul-21 18:31N 38°02' E 023°36'0 0.0
2014-Jul-21 17:19N 38°02' E 023°36'0 0.4
2014-Jul-21 16:32N 38°02' E 023°35'3 3.3
2014-Jul-21 15:33N 38°02' E 023°31'  
Track history (hours):
 
Tides and Currents Weather Stations Pressure Air Temp Water Temp Dewpoint Dewpoint Depression Visibility Wind Speed Wind Dir Waves Ship Positions

Eviapetrol I

Last reported at 2014-Jul-30 16:21 UTC. Time now 2014-Jul-30 19:22 UTC.
Position N 37°55' E 023°05'.

Length 75 m; draft 4.5 m.

Type: Tanker. MMSI: 240285000.

Date/timePositionNaut miles runAvg speedWind from/ knotsBaromVisibWave heightAir tempDewpointWater temp
2014-Jul-30 16:21N 37°55' E 023°05'0 0.0
2014-Jul-30 15:15N 37°55' E 023°05'0 0.0
2014-Jul-30 14:33N 37°55' E 023°05'0 0.0
2014-Jul-30 13:30N 37°55' E 023°05'0 0.0
2014-Jul-30 09:24N 37°55' E 023°05'0 0.0
2014-Jul-30 08:33N 37°55' E 023°05'0 0.0
2014-Jul-30 07:33N 37°55' E 023°05'6 5.0
2014-Jul-30 06:17N 37°51' E 023°12'9 9.4
2014-Jul-30 05:22N 37°43' E 023°17'7 8.4
2014-Jul-30 04:33N 37°40' E 023°24'9 9.0
2014-Jul-30 03:32N 37°35' E 023°34'9 9.4
2014-Jul-30 02:31N 37°26' E 023°37'2 2.0
2014-Jul-30 01:30N 37°25' E 023°39'10 9.0
2014-Jul-30 00:26N 37°15' E 023°41'11 9.7
2014-Jul-29 23:18N 37°04' E 023°43'17 9.6
2014-Jul-29 21:29N 36°47' E 023°48'10 9.5
2014-Jul-29 20:28N 36°38' E 023°51'65 9.3
2014-Jul-29 13:32N 35°34' E 024°03'1 0.1
2014-Jul-29 01:09N 35°34' E 024°04'2 3.3
2014-Jul-29 00:32N 35°35' E 024°03'9 9.1
2014-Jul-28 23:33N 35°44' E 024°01'9 8.6
2014-Jul-28 22:32N 35°53' E 023°60'8 8.0
2014-Jul-28 21:33N 36°01' E 023°59'11 8.4
2014-Jul-28 20:12N 36°12' E 023°59'6 8.7
2014-Jul-28 19:33N 36°18' E 023°58'9 8.9
2014-Jul-28 18:33N 36°27' E 023°56'9 8.6
2014-Jul-28 17:31N 36°35' E 023°54'8 8.4
2014-Jul-28 16:33N 36°43' E 023°52'9 8.5
2014-Jul-28 15:33N 36°52' E 023°50'9 8.7
2014-Jul-28 14:33N 37°00' E 023°48'9 8.8
2014-Jul-28 13:33N 37°09' E 023°47'10 9.0
2014-Jul-28 12:27N 37°19' E 023°46'8 8.8
2014-Jul-28 11:33N 37°27' E 023°45'9 9.1
2014-Jul-28 10:33N 37°36' E 023°43'9 9.5
2014-Jul-28 09:33N 37°45' E 023°39'9 9.3
2014-Jul-28 08:33N 37°54' E 023°35'8 8.3
2014-Jul-28 07:33N 38°01' E 023°32'1 0.2
2014-Jul-28 04:12N 38°02' E 023°32'3 0.4
2014-Jul-27 19:11N 38°02' E 023°36'0 0.6
2014-Jul-27 18:33N 38°02' E 023°35'28 8.5
2014-Jul-27 15:16N 37°55' E 023°01'  
2014-Jul-25 08:30N 37°55' E 023°01'10 7.5
2014-Jul-25 07:11N 37°56' E 023°14'6 9.5
2014-Jul-25 06:33N 37°57' E 023°22'12 1.1
2014-Jul-24 19:19N 38°02' E 023°36'0 0.0
2014-Jul-24 18:31N 38°02' E 023°36'0 0.0
2014-Jul-24 16:06N 38°02' E 023°36'0 0.1
2014-Jul-24 15:33N 38°02' E 023°36'3 3.2
2014-Jul-24 14:33N 38°01' E 023°32'0 0.0
2014-Jul-24 13:33N 38°01' E 023°32'3 2.9
2014-Jul-24 12:33N 37°59' E 023°33'10 9.7
2014-Jul-24 11:33N 37°51' E 023°40'1310.2
2014-Jul-24 10:15N 37°39' E 023°48'4110.3
2014-Jul-24 06:17N 37°08' E 024°21'810.1
2014-Jul-24 05:28N 37°02' E 024°28'910.1
2014-Jul-24 04:32N 36°54' E 024°35'1010.0
2014-Jul-24 03:33N 36°46' E 024°42'10 9.4
2014-Jul-24 02:32N 36°37' E 024°40'10 9.7
2014-Jul-24 01:33N 36°28' E 024°34'9 8.8
2014-Jul-24 00:33N 36°20' E 024°37'9 9.2
2014-Jul-23 23:33N 36°11' E 024°41'9 8.7
2014-Jul-23 22:33N 36°03' E 024°45'12 8.5
2014-Jul-23 21:11N 35°52' E 024°50'6 8.2
2014-Jul-23 20:31N 35°47' E 024°53'8 8.5
2014-Jul-23 19:32N 35°40' E 024°57'9 9.1
2014-Jul-23 18:33N 35°31' E 025°01'10 8.7
2014-Jul-23 17:26N 35°22' E 025°03'1 0.2
2014-Jul-23 12:15N 35°21' E 025°03'0 0.0
2014-Jul-23 06:16N 35°21' E 025°03'1 0.8
2014-Jul-23 05:32N 35°21' E 025°03'9 8.0
2014-Jul-23 04:26N 35°30' E 025°01'12 9.7
2014-Jul-23 03:14N 35°40' E 024°54'1710.3
2014-Jul-23 01:33N 35°55' E 024°44'1110.7
2014-Jul-23 00:33N 36°05' E 024°38'1010.2
2014-Jul-22 23:33N 36°14' E 024°32'1010.0
2014-Jul-22 22:33N 36°22' E 024°25'10 9.4
2014-Jul-22 21:26N 36°31' E 024°19'8 8.8
2014-Jul-22 20:30N 36°39' E 024°14'8 8.6
2014-Jul-22 19:32N 36°47' E 024°10'9 8.8
2014-Jul-22 18:30N 36°55' E 024°06'11 9.4
2014-Jul-22 17:17N 37°05' E 023°60'7 9.2
2014-Jul-22 16:33N 37°11' E 023°56'9 9.1
2014-Jul-22 15:33N 37°20' E 023°52'9 8.7
2014-Jul-22 14:33N 37°28' E 023°49'11 9.0
2014-Jul-22 13:18N 37°38' E 023°43'7 9.6
2014-Jul-22 12:33N 37°45' E 023°39'9 9.1
2014-Jul-22 11:33N 37°54' E 023°36'8 7.7
2014-Jul-22 10:33N 38°01' E 023°32'1 1.1
2014-Jul-22 09:31N 38°02' E 023°32'0 0.0
2014-Jul-22 08:31N 38°02' E 023°32'0 0.0
2014-Jul-22 07:31N 38°02' E 023°32'0 0.0
2014-Jul-22 06:28N 38°02' E 023°32'3 3.1
2014-Jul-22 05:33N 38°02' E 023°35'0 0.3
2014-Jul-22 04:31N 38°02' E 023°36'0 0.0
2014-Jul-22 03:31N 38°02' E 023°36'0 0.0
2014-Jul-22 02:25N 38°02' E 023°36'0 0.0
2014-Jul-22 01:19N 38°02' E 023°36'0 0.0
2014-Jul-22 00:19N 38°02' E 023°36'0 0.0
2014-Jul-21 20:10N 38°02' E 023°36'0 0.0
2014-Jul-21 18:31N 38°02' E 023°36'0 0.0
2014-Jul-21 17:19N 38°02' E 023°36'0 0.4
2014-Jul-21 16:32N 38°02' E 023°35'3 3.3
2014-Jul-21 15:33N 38°02' E 023°31'  

Dump ship's entire track history